Regional Weather Roundup
Issued by NWS

Home | Current Version | Previous Version | Text Only | Print | Product List | Glossary On
Versions: 1 2 3 4 5 6 7 8 9 10 11 12 13 14 15 16 17 18 19 20 21 22 23 24 25 26 27 28 29 30 31 32 33 34 35 36 37 38 39 40 41 42 43 44 45 46 47 48 49 50
000
ASUS43 KLMK 221810
RWRKY
KENTUCKY REGIONAL WEATHER ROUNDUP
NATIONAL WEATHER SERVICE LOUISVILLE KY
200 PM EDT TUE JUL 22 2014

NOTE "FAIR" INDICATES FEW OR NO CLOUDS BELOW 12,000 FEET
WITH NO SIGNIFICANT WEATHER AND/OR OBSTRUCTIONS TO VISIBILITY.

KYZ001>023-026-027-061>063-070>075-221900-
WESTERN AND SOUTH CENTRAL KENTUCKY

CITY           SKY/WX    TMP DP  RH WIND       PRES   REMARKS
PADUCAH        MOSUNNY   90  69  50 CALM      30.08F HX  94
HENDERSON      SUNNY     91  70  49 SW3       30.07F HX  97
OWENSBORO      MOSUNNY   90  70  51 SW7       30.09F HX  95
HOPKINSVILLE   MOSUNNY   90  70  51 VRB5      30.09S HX  94
BOWLING GREEN  PTSUNNY   87  68  52 MISG      30.10S HX  90
GLASGOW        MOSUNNY   89  67  47 SW5       30.11S HX  92
$$

KYZ024-025-028>034-038-045-046-053-221900-
NORTH CENTRAL KENTUCKY

CITY           SKY/WX    TMP DP  RH WIND       PRES   REMARKS
LOUISVILLE/SDF MOSUNNY   90  69  50 VRB5      30.07F HX  94
LOUISVILLE/LOU SUNNY     90  69  50 S5        30.08F HX  94
FORT KNOX      SUNNY     89  71  54 VRB2      30.08F HX  96
$$

KYZ035>037-039>044-047>052-055>060-089>105-221900-
NORTHEAST KENTUCKY

CITY           SKY/WX    TMP DP  RH WIND       PRES   REMARKS
LEXINGTON      SUNNY     90  68  48 CALM      30.10F HX  94
COVINGTON      MOSUNNY   89  65  44 SW8       30.09F HX  91
FRANKFORT      PTSUNNY   88  70  55 NW6       30.09F HX  93
$$

KYZ054-064>069-076>088-106>120-221900-
SOUTHEAST KENTUCKY

CITY           SKY/WX    TMP DP  RH WIND       PRES   REMARKS
JACKSON        MOSUNNY   83  67  58 CALM      30.14S
LONDON         PTSUNNY   87  70  56 SW8       30.13F HX  92
SOMERSET       PTSUNNY   82  68  61 NW5       30.13S
MIDDLESBORO    PTSUNNY   86  69  56 S5        30.13F
MONTICELLO     PTCLDY    88  72  58 CALM      30.13F HX  94
$$



USA.gov is the U.S. government's official web portal to all federal, state and local government web resources and services.